RH
63 60 70 57 47 55 64 67 68 60 58 50 46 47 49 47 54 67 31 30 31 34 34 42 56 59 59 65 68 69 70 73 77 82 85 86 86 80 75 76 77 75 77 79 78 78 79 78 79
57 58 60 55 53 58 68 65 60 59 51 45 43 47 50 51 37 34 34 27 32 37 42 50 57 58 58 62 68 69 70 71 75 78 82 86 86 87 79 74 76 78 78 80 81 81 80 80 82
50 56 52 56 62 62 68 60 60 46 32 36 43 50 53 47 29 28 29 28 38 50 55 50 58 59 59 59 67 69 71 72 73 80 78 83 85 86 83 77 78 82 85 84 85 84 84 82 84
52 52 51 58 61 54 54 46 50 41 28 20 39 58 31 26 24 25 26 37 57 60 55 55 60 60 62 60 66 69 70 72 73 80 82 81 83 86 90 87 84 86 87 86 86 86 84 84 83
52 50 52 57 58 49 41 32 29 23 24 27 30 56 35 31 27 27 44 50 63 63 61 56 61 63 69 64 64 67 70 71 73 80 83 81 83 87 88 91 90 84 86 86 85 84 84 82 80
40 45 44 61 59 43 38 32 23 22 26 28 28 48 38 29 32 44 56 64 62 63 60 59 58 65 66 65 69 69 70 72 74 74 80 85 83 85 87 89 92 85 83 87 85 84 83 82 77
48 41 43 56 46 42 34 29 27 22 24 22 22 43 31 33 36 53 60 57 60 59 57 59 61 60 70 68 71 71 71 73 75 76 78 82 84 86 84 89 90 87 83 86 88 85 84 82 78
53 38 31 43 41 39 30 27 23 21 22 18 17 24 33 31 37 53 56 59 57 55 56 54 56 61 69 72 71 71 76 77 78 80 82 86 86 88 84 86 89 92 92 84 87 88 84 83 84
49 64 53 27 28 38 30 25 25 23 21 23 20 21 27 32 40 44 52 55 61 55 59 52 56 59 64 58 71 79 80 81 84 87 86 86 86 87 86 85 86 90 88 88 87 89 88 89 86
56 58 33 31 33 38 31 28 26 24 29 28 24 31 32 41 43 47 51 58 61 60 61 62 58 62 59 51 74 81 80 90 91 92 92 90 89 90 85 88 87 88 91 93 86 90 89 85 96
38 54 30 39 36 35 33 30 28 26 31 27 27 30 32 47 49 49 50 51 55 59 62 62 57 64 63 66 72 76 82 94 93 93 91 93 93 88 90 93 92 92 91 93 90 93 96 90 96
36 30 30 37 35 33 33 35 35 30 27 24 25 28 35 50 51 49 52 49 51 56 58 60 60 62 65 76 73 74 80 87 94 95 90 91 93 90 92 96 94 93 94 94 98 96 94 93 94
30 30 29 33 32 31 32 40 37 36 30 28 28 28 42 48 46 47 50 50 50 52 55 58 60 63 63 67 75 75 82 92 92 97 86 91 96 96 91 94 94 95 94 94 96 96 89 90 92
33 31 33 34 36 37 39 42 42 31 34 33 30 31 42 43 44 48 49 49 47 46 51 55 60 62 64 67 69 76 87 90 95 93 91 92 93 94 91 92 93 96 96 95 95 97 91 90 88
35 40 39 40 39 43 36 37 41 32 28 31 33 32 39 41 43 46 49 48 45 46 49 55 51 63 64 67 70 78 88 86 92 90 92 85 90 91 90 93 95 97 97 94 91 91 92 85 84
39 51 63 43 42 45 36 42 32 31 33 32 32 31 40 41 42 46 49 50 44 45 47 53 47 63 64 67 74 74 79 90 92 91 90 86 90 84 88 91 93 93 94 94 94 93 95 92 80
49 71 59 40 42 48 40 41 31 34 34 36 32 32 42 44 44 43 45 48 45 44 47 51 56 62 65 69 74 76 78 83 88 90 91 85 80 80 87 89 91 91 95 94 95 94 96 96 85
58 54 39 36 39 49 50 44 32 31 36 38 37 35 45 47 46 41 42 43 44 46 48 50 57 60 64 74 73 75 78 78 82 91 85 80 81 81 86 88 87 91 94 94 94 95 93 94 85
24 27 28 33 33 43 46 44 33 32 38 37 41 39 45 47 45 41 39 41 46 48 48 51 58 60 69 74 78 82 76 82 79 79 81 79 77 81 86 90 89 90 95 94 93 95 96 95 96
31 38 40 39 35 36 38 36 27 27 32 34 39 41 44 52 46 43 42 42 45 49 50 52 56 61 67 71 76 79 81 80 82 79 79 77 77 83 80 88 88 88 93 93 93 95 96 98 97
45 52 54 48 40 38 41 50 43 41 36 34 39 44 44 47 48 46 42 45 51 51 52 54 57 61 65 67 73 74 75 75 75 73 75 78 79 80 81 84 84 85 88 94 95 95 96 98 97
58 42 42 39 49 59 48 76 41 41 42 40 38 51 53 50 49 47 46 47 52 52 56 57 57 61 58 65 72 75 78 80 79 81 78 79 80 79 81 82 81 84 86 89 93 93 95 95 98
64 44 50 49 58 71 58 74 45 42 39 46 45 49 56 53 50 52 50 45 51 54 60 63 60 62 64 65 68 77 77 80 79 79 79 81 78 80 78 79 82 84 81 85 86 91 94 94 96
50 74 77 84 89 87 72 78 62 58 52 40 49 48 55 63 62 59 61 58 60 60 63 66 64 65 65 66 69 71 74 76 80 80 84 78 80 81 79 75 81 80 79 81 86 86 90 93 94
73 78 84 86 94 85 74 80 72 62 73 61 51 49 60 74 76 76 73 76 82 82 72 69 69 69 69 68 69 71 71 74 78 80 83 81 80 79 78 78 77 79 78 77 81 87 87 89 93
71 73 86 76 90 88 71 84 64 68 78 78 75 74 64 68 79 78 75 76 80 82 86 80 77 74 72 71 69 72 70 75 77 80 80 81 84 80 76 74 74 73 72 73 75 87 90 86 92
76 78 74 82 93 89 85 71 54 67 74 76 74 81 69 67 72 75 80 78 80 85 86 86 86 80 77 74 73 74 75 73 76 76 78 81 78 60 66 74 75 73 72 72 73 80 85 90 89
72 65 73 87 73 87 87 87 57 64 51 73 72 73 73 76 73 75 78 78 83 84 88 90 89 84 80 84 79 71 75 76 77 77 77 80 78 76 76 74 73 72 70 70 73 77 76 86 91
78 80 82 83 84 84 92 78 75 53 62 61 67 70 72 76 74 74 75 78 84 89 89 88 90 90 84 81 88 79 76 76 75 74 77 78 76 77 76 74 72 71 71 70 72 74 72 73 84
83 75 80 82 75 95 93 79 75 77 78 76 65 74 75 77 80 84 82 86 88 86 90 88 89 90 89 90 87 80 73 74 74 73 74 75 80 76 75 74 72 71 70 70 72 74 73 74 75
Wind_Speed
8 8 2 5 8 8 4 4 2 4 4 4 5 8 10 7 4 4 6 5 7 7 8 8 21 23 24 23 24 25 25 23 23 22 19 19 17 12 8 4 4 5 10 11 14 14 16 18 17
6 5 5 3 8 6 2 3 5 2 2 2 7 4 6 5 4 4 3 8 8 9 9 10 21 21 23 23 24 23 25 24 24 24 22 17 17 15 9 4 3 6 8 12 14 15 12 14 14
6 3 5 6 5 5 5 1 4 2 7 4 4 7 5 4 3 3 3 6 9 9 10 13 21 21 21 21 23 24 24 24 23 23 23 21 18 15 13 7 3 6 8 10 14 13 11 9 9
4 5 6 8 6 3 5 3 5 4 4 7 3 8 6 8 3 2 6 8 8 7 10 15 20 22 21 20 23 23 24 24 23 23 23 23 21 16 17 13 4 7 9 11 12 11 10 7 7
5 4 7 6 4 3 2 2 2 4 4 4 2 3 6 3 4 7 8 8 8 7 8 10 21 22 21 20 22 22 22 24 24 23 24 24 24 19 15 16 12 8 9 12 13 11 10 7 5
5 4 7 4 4 3 1 2 3 4 1 1 6 5 2 2 2 6 8 7 5 6 7 9 17 20 22 21 21 22 22 23 24 23 23 23 23 23 18 14 14 7 10 13 14 11 9 7 4
8 6 5 5 7 3 3 2 4 4 2 1 5 6 4 2 5 7 7 6 5 6 7 7 9 14 18 20 22 22 22 22 22 23 24 22 22 22 23 16 14 10 8 13 14 13 9 7 4
6 6 5 3 6 5 4 3 5 5 3 2 2 6 6 5 7 8 7 6 5 6 7 9 10 11 10 7 21 23 23 22 21 21 23 24 21 22 21 23 17 16 11 12 13 15 12 8 5
3 7 3 5 7 6 4 4 2 1 5 0 2 4 8 8 6 7 6 8 6 9 10 10 10 10 12 12 13 16 19 20 20 17 20 17 11 13 14 19 22 17 17 9 14 15 13 11 5
7 6 4 1 3 5 4 3 5 3 2 2 5 5 7 6 6 8 7 6 6 7 7 8 10 10 10 9 9 9 9 8 9 10 10 8 10 10 14 13 22 21 23 11 16 15 13 9 3
4 5 4 2 4 5 5 3 2 5 4 6 9 8 7 7 7 8 5 5 5 4 4 7 8 9 10 8 6 5 5 5 7 10 10 7 7 8 8 7 7 9 14 10 8 9 4 6 4
8 6 5 4 3 4 5 2 1 6 5 7 7 9 8 9 7 7 7 5 4 5 5 5 6 6 7 6 7 7 5 6 6 9 11 8 6 8 9 6 7 8 6 9 7 3 7 6 6
6 3 5 5 5 4 3 3 4 7 9 6 4 7 9 8 8 6 7 6 4 5 5 6 6 5 5 5 5 6 6 5 6 6 9 8 7 7 8 8 6 7 7 7 6 7 4 8 6
3 6 5 3 2 1 1 2 3 5 6 9 8 8 8 10 8 6 6 5 4 4 5 5 5 5 5 5 6 5 5 6 5 6 8 9 7 7 8 9 9 7 7 7 7 6 4 4 6
4 4 3 1 1 1 1 3 8 5 4 7 9 8 8 8 8 7 7 6 5 2 4 6 6 6 6 5 4 4 4 5 5 6 8 10 8 10 11 8 8 7 6 10 8 9 4 4 4
4 5 3 1 2 2 3 8 3 6 7 7 8 8 8 8 8 7 7 7 5 4 4 5 5 6 6 6 5 4 4 4 4 5 6 9 8 12 9 9 9 11 8 7 7 7 7 4 6
6 2 1 5 5 2 2 8 4 2 8 8 8 8 9 7 6 6 6 7 6 4 3 4 5 5 5 5 5 5 6 5 5 4 6 10 12 11 10 8 9 11 7 7 7 7 5 7 6
6 3 2 3 2 2 1 18 13 7 7 10 10 8 9 9 8 8 8 7 6 5 3 3 3 5 5 4 4 3 3 4 4 6 7 10 9 11 9 9 9 9 7 8 8 9 8 7 6
5 4 3 1 3 2 7 15 21 9 9 12 10 10 10 11 7 7 7 7 7 5 3 3 3 4 4 2 2 1 4 3 4 6 9 10 8 10 9 8 10 9 9 10 10 8 8 6 3
4 3 2 1 1 0 7 15 20 14 9 9 13 12 12 8 10 8 8 7 7 6 4 2 2 3 3 2 2 1 2 2 2 4 5 8 10 10 10 10 9 11 10 9 9 9 6 3 5
2 5 3 2 4 3 7 10 6 2 3 3 4 7 12 18 16 10 10 8 7 6 5 3 2 2 3 4 2 3 2 2 2 6 6 8 8 9 9 9 9 10 8 8 9 10 13 5 2
1 0 3 4 5 3 4 9 7 3 8 5 6 7 12 12 9 10 10 8 8 7 6 4 3 2 3 4 4 5 3 3 3 3 5 6 7 8 8 8 9 8 7 8 9 9 9 11 6
3 5 4 3 4 5 1 3 12 4 7 9 10 9 10 12 13 13 12 10 7 7 7 5 4 2 2 3 3 3 3 2 2 3 6 4 5 6 8 8 8 8 8 9 11 10 10 7 6
7 7 7 5 4 2 4 6 8 5 8 1 3 9 10 10 10 8 8 8 7 7 6 6 5 3 2 2 2 3 4 4 4 4 3 5 4 4 6 8 7 7 7 7 8 9 10 10 8
7 6 3 5 3 7 2 2 13 9 6 5 7 10 10 9 9 9 10 9 8 9 8 6 6 5 4 3 2 1 2 2 3 4 3 5 5 5 7 8 8 7 8 8 8 9 10 9 9
5 7 7 9 4 4 3 9 11 7 5 7 5 5 9 11 9 12 13 12 12 11 8 8 7 6 5 4 3 1 1 1 2 3 3 3 3 5 6 8 8 9 8 8 8 5 7 9 9
6 3 4 7 0 4 5 9 13 3 6 3 6 4 10 12 13 15 11 13 12 10 11 10 8 7 6 6 4 3 1 1 3 4 3 3 3 6 8 8 8 8 9 9 9 6 7 9 8
6 2 4 3 2 6 6 7 9 5 10 6 8 11 10 8 10 12 12 13 9 8 7 7 7 8 6 5 5 4 3 2 2 3 4 4 4 5 6 7 8 9 9 9 10 8 7 7 7
3 2 2 2 5 7 2 9 10 12 8 9 13 10 10 11 13 12 11 10 8 6 9 10 8 8 8 7 5 5 4 3 2 2 3 3 4 5 6 7 8 8 9 9 9 9 11 9 9
4 8 7 6 7 4 3 11 4 8 6 5 8 10 7 8 8 8 9 8 10 11 9 12 10 10 8 6 6 5 4 4 3 3 3 3 4 4 6 7 7 8 8 9 9 10 10 11 12
Wind_Direction
334 322 47 39 57 64 55 34 352 37 43 350 311 74 102 49 32 130 215 341 28 24 359 354 16 13 13 16 15 14 14 18 17 16 13 10 5 344 336 61 73 73 126 124 110 109 108 109 101
343 346 40 82 80 72 339 346 92 67 160 67 79 112 53 84 62 98 32 334 41 25 3 6 16 13 11 15 14 15 11 11 13 14 13 5 2 353 329 352 102 116 124 126 120 108 112 114 113
343 43 73 77 80 112 138 87 149 60 36 55 87 53 51 19 40 97 277 32 49 29 11 5 14 15 12 12 14 14 13 9 9 8 12 8 4 357 342 329 105 127 122 128 114 118 129 125 116
30 15 32 71 86 14 129 176 146 119 24 34 105 77 70 315 94 157 46 71 63 35 26 12 18 16 15 14 12 13 14 10 6 6 7 10 8 7 8 350 151 156 140 123 118 130 132 127 101
34 59 64 89 79 120 105 96 75 97 101 12 7 90 110 344 71 56 67 63 59 40 30 19 18 18 16 15 13 11 11 12 7 7 3 7 7 7 11 0 346 175 166 141 139 141 136 130 103
45 89 70 114 117 131 12 4 97 70 27 78 88 104 112 296 107 88 90 84 67 58 31 26 20 18 14 11 12 12 10 10 11 8 3 1 5 5 5 14 11 323 190 159 151 147 145 137 132
101 76 122 119 140 140 178 98 87 104 140 20 145 95 160 248 107 105 93 85 75 63 41 21 13 14 12 9 10 9 9 9 8 8 4 1 360 4 5 8 8 329 230 181 162 150 154 152 156
94 88 96 118 178 178 190 105 134 132 190 253 117 157 188 193 141 109 89 73 63 49 43 27 15 6 6 2 7 9 7 6 4 7 7 1 356 356 1 358 357 347 343 194 175 154 163 162 165
91 65 123 149 158 163 191 134 354 87 121 191 158 118 135 139 128 91 51 33 31 27 26 19 18 15 2 359 0 1 360 1 355 357 2 4 353 344 357 354 357 5 345 254 182 162 161 162 166
67 85 147 359 107 148 134 128 154 132 111 192 87 81 107 108 89 80 69 64 50 25 11 13 8 8 9 1 354 349 349 348 344 341 348 355 351 343 352 352 354 12 360 319 187 168 167 152 151
37 117 144 44 96 91 125 118 153 137 225 207 167 161 137 113 99 101 89 82 87 101 40 15 7 2 360 357 359 348 348 342 340 338 354 351 355 359 346 341 353 355 4 3 201 165 158 148 162
93 52 98 152 76 103 138 134 300 192 228 146 165 167 135 141 136 124 107 85 67 38 27 28 22 15 358 351 350 342 343 347 344 336 356 353 2 350 345 333 356 354 355 346 7 282 153 153 170
74 124 78 111 105 122 136 209 228 238 230 206 138 159 142 138 134 115 115 105 89 51 21 11 22 25 8 3 341 330 334 337 329 345 349 356 355 348 350 324 357 344 334 347 338 360 230 161 169
76 88 116 118 139 102 223 210 45 250 209 219 198 173 163 151 150 127 125 120 91 45 23 9 17 30 17 1 339 328 328 333 341 356 345 351 357 351 343 348 335 338 333 330 338 356 258 198 166
112 75 54 119 141 78 33 242 229 197 143 171 190 179 162 157 146 149 146 128 123 91 36 15 11 19 15 351 331 333 342 349 355 349 340 347 359 5 347 347 334 334 323 344 343 8 317 224 186
60 52 61 333 123 25 54 269 251 197 186 202 189 177 161 167 153 146 138 128 123 98 51 46 22 10 2 352 339 353 345 336 344 343 343 341 4 5 3 340 339 351 358 338 344 355 355 288 214
12 177 215 313 195 84 76 266 259 227 185 204 207 200 169 152 152 149 145 141 132 116 78 47 30 11 3 349 346 345 348 349 349 341 6 4 11 3 356 343 339 339 346 309 349 350 345 324 229
186 174 205 232 210 179 250 268 264 247 212 217 210 209 175 174 181 166 151 150 130 119 106 67 41 11 358 1 327 337 338 334 350 3 15 12 2 354 357 343 340 336 322 345 345 335 343 306 220
109 119 161 34 358 257 223 269 278 263 232 234 217 209 185 182 172 164 156 151 130 126 123 76 42 5 11 345 351 333 359 340 359 13 10 10 346 2 356 346 331 338 344 347 332 338 321 347 356
89 99 254 5 99 314 314 278 274 269 247 214 215 205 180 154 167 172 169 163 158 158 153 109 60 34 16 12 349 355 313 332 10 349 353 355 3 4 1 352 340 354 346 336 343 338 315 295 16
90 151 175 173 325 257 321 284 297 266 272 256 237 194 177 173 175 180 176 170 157 169 174 152 112 56 52 18 352 341 2 339 1 4 1 354 354 2 2 350 356 346 341 346 352 340 334 309 334
151 19 117 87 65 241 20 283 296 265 276 245 236 190 172 170 175 177 174 170 174 182 173 159 132 90 70 27 32 43 34 9 350 328 335 345 350 355 352 355 354 350 337 350 350 342 338 337 326
148 76 79 72 87 43 330 71 271 349 277 240 215 202 188 179 178 182 182 175 180 166 176 169 159 125 84 54 47 55 36 356 320 337 346 335 347 344 345 352 351 350 355 352 344 337 333 326 332
130 64 47 51 84 360 223 141 280 221 213 168 199 203 190 183 185 181 177 160 169 172 169 172 173 178 129 91 64 53 40 1 356 353 350 349 337 330 345 347 353 349 343 347 330 331 326 323 329
67 63 341 343 5 227 120 68 249 268 244 213 210 206 196 187 181 175 177 182 180 184 182 179 183 197 191 189 172 91 36 8 351 344 339 339 330 347 344 349 344 339 335 337 335 338 324 322 318
181 154 171 217 206 254 34 232 248 223 254 249 244 218 190 197 191 194 193 190 193 191 184 181 182 197 198 211 213 169 29 344 333 337 338 336 332 331 327 337 336 333 334 330 322 318 322 321 315
220 181 190 98 61 46 237 289 294 269 266 284 241 196 208 203 200 204 198 197 194 191 192 186 181 195 201 211 221 220 244 334 329 333 337 324 322 333 339 329 329 332 327 326 323 325 313 314 322
150 168 67 355 227 262 285 277 244 289 237 199 240 224 220 207 200 204 204 205 198 191 184 182 187 195 194 202 209 222 217 240 279 313 327 334 324 326 328 328 327 328 328 328 328 320 313 313 315
133 233 20 133 161 191 256 257 218 226 216 206 223 220 216 208 210 205 206 206 194 180 186 191 189 188 196 196 201 219 235 244 268 296 320 327 324 325 322 322 323 325 325 327 325 316 311 318 307
180 199 162 153 241 226 156 264 244 239 259 236 240 220 227 209 204 208 205 187 190 200 192 198 191 195 199 181 182 211 218 237 272 288 300 307 306 308 312 316 318 317 319 318 317 314 316 312 309